Find OneWeb SL0262

NORAD ID: 48980 Int'l Des: 2021-060 Owner: ONEWEBN Country: UK Constellation: oneweb operational
LEOCIRCULARPOLARONEWEB_TYPE

現在のビュー

3D地球を読み込み中...

About OneWeb SL0262

OneWeb SL0262 (NORAD 48980) is a oneweb constellation satellite launched Jul 1, 2021 by ONEWEBN of UK. It operates in LEO, CIRCULAR, POLAR, ONEWEB_TYPE orbit with a mass of 148.00 kg.

OneWeb SL0262について

説明を読み込み中...

次回通過

Passes for default location (London). Set your location on the main map for personalized predictions.

高度履歴

Loading altitude history...

軌道要素

1 48980U 21060P 26177.61504963 .00000007 00000-0 -15324-4 0 9992
2 48980 87.9095 226.8978 0002221 103.0951 257.0428 13.16595419240869
Epoch: Jun 26, 2026 • Age: 11 hours

現在のステータス

高度 1209.7 km
速度 7.26 km/s
衛星直下点 80.70°N, 67.3°W
打ち上げ日 Jul 1, 2021
運用期間 4.9 years
タイプ internet

技術仕様

分類 Payload
質量 148.00 kg
乾燥質量 140.00 kg
総質量 148.00 kg
長さ 1.30 m
直径 1.00 m
スパン 5.00 m
形状 Trapezoid+2 pan
製造者 ONEWUS
バスタイプ ARROW
フェーズステータス In Orbit
所有者/国 ONEWEBN/UK

Most Searched